Location: Damada
(14.7329°N, 3.1761°W)
Time: 17:47:40
(UTC+00:00)

Intelsat 5-1 Rocket - Pass Details

Date: 18 February 2020
Orbit: 308 x 7623 km, 23.9° (Epoch: 31 March)

Event Time Altitude Azimuth Distance (km) Brightness Sun altitude
Rises 19:23:33 0° 277° (W) 2,866 7.0 -16.5°
Reaches altitude 10° 19:25:11 10° 283° (WNW) 2,267 6.0 -16.9°
Maximum altitude 19:30:15 51° 0° (N) 1,599 4.0 -18.1°
Enters shadow 19:38:02 23° 64° (ENE) 3,946 5.5 -20.0°
